Overview Statistics Trail Chart Weather Telemetry Raw packets
 

This is the latest recevied weather packets stored in our database for station/object W6MAF. If no packets are shown the sender has not sent any weather packets the latest 10 day(s).

<< 105 106 107 108 109 110 111 >>
Time Temp. Humidity Pressure Rain* Wind** Luminosity Snow
1787887644 26.67° C 9% - 0 mm 0.89 m/s, 328° - -
1787887353 26.67° C 9% - 0 mm 2.68 m/s, 330° - -
1787887049 26.67° C 9% - 0 mm 0.45 m/s, 326° - -
1787886750 26.67° C 9% - 0 mm 1.34 m/s, 342° - -
1787886453 26.67° C 9% - 0 mm 0 m/s - -
1787886155 26.67° C 8% - 0 mm 3.58 m/s, 325° - -
1787885854 26.67° C 9% - 0 mm 0.45 m/s, 4° - -
1787885556 26.67° C 9% - 0 mm 4.92 m/s, 329° - -
1787885258 27.22° C 9% - 0 mm 4.02 m/s, 318° - -
1787884961 27.22° C 9% - 0 mm 1.79 m/s, 293° - -
1787884663 27.22° C 9% - 0 mm 3.58 m/s, 295° - -
1787884365 27.22° C 9% - 0 mm 2.68 m/s, 332° - -
1787884064 27.78° C 9% - 0 mm 4.02 m/s, 298° - -
1787883766 27.78° C 9% - 0 mm 4.47 m/s, 338° - -
1787883469 27.78° C 8% - 0 mm 4.92 m/s, 314° - -
1787883171 27.78° C 9% - 0 mm 4.02 m/s, 302° - -
1787882873 28.33° C 8% - 0 mm 4.47 m/s, 326° - -
1787882575 28.33° C 8% - 0 mm 3.58 m/s, 328° - -
1787882274 28.33° C 8% - 0 mm 4.47 m/s, 323° - -
1787881976 28.33° C 8% - 0 mm 4.02 m/s, 325° - -
1787881679 28.33° C 7% - 0 mm 3.58 m/s, 298° - -
1787881381 28.89° C 8% - 0 mm 4.92 m/s, 322° - -
1787881083 28.89° C 8% - 0 mm 2.24 m/s, 300° - -
1787880785 28.89° C 8% - 0 mm 1.79 m/s, 308° - -
1787880484 28.89° C 8% - 0 mm 4.47 m/s, 302° - -

* Rain latest hour (hover to see other rain measurements)
** Current wind speed in m/s (hover to see current wind gust speed)